Location: Chochol
(49.7771°N, 14.9780°E)
Time: 19:58:23
(UTC+00:00)

Cosmos 1980 Rocket - Pass Details

Date: 09 April 2020
Orbit: 828 x 851 km, 71.0° (Epoch: 03 June)

Event Time Altitude Azimuth Distance (km) Brightness Sun altitude
Rises 21:37:07 0° 327° (NNW) 3,389 6.5 -29.4°
Reaches altitude 10° 21:39:37 10° 322° (NW) 2,454 5.5 -29.5°
Enters shadow 21:44:28 47° 268° (W) 1,098 2.8 -29.8°
